OE3XOC-11 Weather Reports


Display with metric or nautical units.
time (UTC)temp
F
wind
direction
speed
MPH
gust
MPH
rain 1hr
in
rain 24hr
in
rain mn
in
humidity
%
barometer
mb
20260507174242 64 0.0 0.0 0.00 0.00 0.00 47 958.7
20260507173742 64 0.0 0.0 0.00 0.00 0.00 46 958.7
20260507173242 64 0.0 0.0 0.00 0.00 0.00 46 958.7
20260507172742 64 0.0 0.0 0.00 0.00 0.00 46 958.6
20260507172242 65 0.0 0.0 0.00 0.00 0.00 45 958.5
20260507171742 66 0.0 0.0 0.00 0.00 0.00 44 958.5
20260507171242 65 0.0 0.0 0.00 0.00 0.00 44 958.4
20260507170742 65 0.0 0.0 0.00 0.00 0.00 44 958.3
20260507170242 66 0.0 0.0 0.00 0.00 0.00 43 958.3
20260507165742 65 0.0 0.0 0.00 0.00 0.00 43 958.3
20260507165242 65 0.0 0.0 0.00 0.00 0.00 44 958.2
20260507164742 65 0.0 0.0 0.00 0.00 0.00 43 958.1
20260507164242 66 0.0 0.0 0.00 0.00 0.00 42 958.1
20260507163742 66 0.0 0.0 0.00 0.00 0.00 42 958.1
20260507163242 67 0.0 0.0 0.00 0.00 0.00 41 958.1
20260507162742 66 0.0 0.0 0.00 0.00 0.00 41 958.0
20260507162242 66 0.0 0.0 0.00 0.00 0.00 40 958.0
20260507161742 66 0.0 0.0 0.00 0.00 0.00 40 958.0
20260507161242 66 0.0 0.0 0.00 0.00 0.00 40 957.9
20260507160742 67 0.0 0.0 0.00 0.00 0.00 40 957.9
20260507160242 67 0.0 0.0 0.00 0.00 0.00 39 958.0
20260507155742 67 0.0 0.0 0.00 0.00 0.00 39 957.9
20260507155242 67 0.0 0.0 0.00 0.00 0.00 39 957.7
20260507154743 68 0.0 0.0 0.00 0.00 0.00 38 957.9
20260507154243 67 0.0 0.0 0.00 0.00 0.00 38 957.8
20260507153743 68 0.0 0.0 0.00 0.00 0.00 36 957.8
20260507153242 69 0.0 0.0 0.00 0.00 0.00 37 957.9
20260507152742 70 0.0 0.0 0.00 0.00 0.00 36 957.8
20260507152242 70 0.0 0.0 0.00 0.00 0.00 35 957.7
20260507151742 69 0.0 0.0 0.00 0.00 0.00 35 957.7
20260507151242 70 0.0 0.0 0.00 0.00 0.00 35 957.6
20260507150742 69 0.0 0.0 0.00 0.00 0.00 35 957.7
20260507150242 70 0.0 0.0 0.00 0.00 0.00 36 957.7
20260507145742 70 0.0 0.0 0.00 0.00 0.00 35 957.7
20260507145242 71 0.0 0.0 0.00 0.00 0.00 35 957.6
20260507144742 71 0.0 0.0 0.00 0.00 0.00 35 957.6
20260507144242 70 0.0 0.0 0.00 0.00 0.00 36 957.7
20260507143742 70 0.0 0.0 0.00 0.00 0.00 36 957.7
20260507143242 70 0.0 0.0 0.00 0.00 0.00 36 957.7
20260507142742 71 0.0 0.0 0.00 0.00 0.00 34 957.6
20260507142242 70 0.0 0.0 0.00 0.00 0.00 35 957.7
20260507141742 71 0.0 0.0 0.00 0.00 0.00 34 957.7
20260507141242 70 0.0 0.0 0.00 0.00 0.00 35 957.6
20260507140742 70 0.0 0.0 0.00 0.00 0.00 35 957.6
20260507140242 70 0.0 0.0 0.00 0.00 0.00 35 957.6
20260507135742 71 0.0 0.0 0.00 0.00 0.00 35 957.6
20260507135242 70 0.0 0.0 0.00 0.00 0.00 35 957.6
20260507134742 70 0.0 0.0 0.00 0.00 0.00 36 957.6
20260507134242 70 0.0 0.0 0.00 0.00 0.00 35 957.5
20260507133742 72 0.0 0.0 0.00 0.00 0.00 34 957.5
20260507133242 72 0.0 0.0 0.00 0.00 0.00 35 957.7
20260507132742 71 0.0 0.0 0.00 0.00 0.00 35 957.7
20260507132242 70 0.0 0.0 0.00 0.00 0.00 35 957.7
20260507131742 71 0.0 0.0 0.00 0.00 0.00 35 957.8
20260507131242 69 0.0 0.0 0.00 0.00 0.00 35 957.9
20260507130742 71 0.0 0.0 0.00 0.00 0.00 35 957.9
20260507130242 72 0.0 0.0 0.00 0.00 0.00 34 957.8
20260507125742 72 0.0 0.0 0.00 0.00 0.00 34 957.8
20260507125242 69 0.0 0.0 0.00 0.00 0.00 36 957.9
20260507124742 71 0.0 0.0 0.00 0.00 0.00 36 957.9
20260507124242 69 0.0 0.0 0.00 0.00 0.00 36 957.9
20260507123742 69 0.0 0.0 0.00 0.00 0.00 36 957.9
20260507123242 68 0.0 0.0 0.00 0.00 0.00 37 957.9
20260507122742 70 0.0 0.0 0.00 0.00 0.00 36 958.0
20260507122242 69 0.0 0.0 0.00 0.00 0.00 36 958.1
20260507121742 69 0.0 0.0 0.00 0.00 0.00 36 958.1
20260507121242 71 0.0 0.0 0.00 0.00 0.00 35 958.0
20260507120742 69 0.0 0.0 0.00 0.00 0.00 36 958.0
20260507120242 70 0.0 0.0 0.00 0.00 0.00 36 958.0
20260507115742 69 0.0 0.0 0.00 0.00 0.00 36 958.1
20260507115242 69 0.0 0.0 0.00 0.00 0.00 37 958.1
20260507114742 67 0.0 0.0 0.00 0.00 0.00 37 958.2
20260507114242 67 0.0 0.0 0.00 0.00 0.00 38 958.2
20260507113742 68 0.0 0.0 0.00 0.00 0.00 39 958.2
20260507113242 67 0.0 0.0 0.00 0.00 0.00 40 958.2
20260507112742 68 0.0 0.0 0.00 0.00 0.00 39 958.3
20260507112242 68 0.0 0.0 0.00 0.00 0.00 39 958.3
20260507111742 67 0.0 0.0 0.00 0.00 0.00 39 958.4
20260507111242 67 0.0 0.0 0.00 0.00 0.00 40 958.5
20260507110742 68 0.0 0.0 0.00 0.00 0.00 38 958.5
20260507110242 66 0.0 0.0 0.00 0.00 0.00 41 958.5
20260507105742 66 0.0 0.0 0.00 0.00 0.00 41 958.5
20260507105242 65 0.0 0.0 0.00 0.00 0.00 42 958.5
20260507104742 65 0.0 0.0 0.00 0.00 0.00 43 958.6
20260507104242 66 0.0 0.0 0.00 0.00 0.00 41 958.6
20260507103742 64 0.0 0.0 0.00 0.00 0.00 42 958.5
20260507103242 64 0.0 0.0 0.00 0.00 0.00 42 958.7
20260507102743 64 0.0 0.0 0.00 0.00 0.00 44 958.8
20260507102242 64 0.0 0.0 0.00 0.00 0.00 45 958.8
20260507101742 65 0.0 0.0 0.00 0.00 0.00 44 958.8
20260507101242 64 0.0 0.0 0.00 0.00 0.00 45 958.9
20260507100742 63 0.0 0.0 0.00 0.00 0.00 45 958.8
20260507100242 63 0.0 0.0 0.00 0.00 0.00 45 958.8
20260507095742 63 0.0 0.0 0.00 0.00 0.00 47 958.8
20260507095242 64 0.0 0.0 0.00 0.00 0.00 47 958.8
20260507094742 63 0.0 0.0 0.00 0.00 0.00 47 958.7
20260507094242 63 0.0 0.0 0.00 0.00 0.00 48 958.6
20260507093742 62 0.0 0.0 0.00 0.00 0.00 49 958.6
20260507093242 62 0.0 0.0 0.00 0.00 0.00 49 958.7
20260507092742 63 0.0 0.0 0.00 0.00 0.00 48 958.7
20260507092242 62 0.0 0.0 0.00 0.00 0.00 49 958.7
20260507091742 63 0.0 0.0 0.00 0.00 0.00 48 958.7
20260507091242 62 0.0 0.0 0.00 0.00 0.00 49 958.6
20260507090742 61 0.0 0.0 0.00 0.00 0.00 49 958.4
20260507090242 62 0.0 0.0 0.00 0.00 0.00 48 958.3
20260507085742 62 0.0 0.0 0.00 0.00 0.00 49 958.5
20260507085242 63 0.0 0.0 0.00 0.00 0.00 49 958.4
20260507084742 63 0.0 0.0 0.00 0.00 0.00 50 958.4
20260507084242 61 0.0 0.0 0.00 0.00 0.00 51 958.3
20260507083742 62 0.0 0.0 0.00 0.00 0.00 50 958.4
20260507083242 61 0.0 0.0 0.00 0.00 0.00 51 958.3
20260507082742 61 0.0 0.0 0.00 0.00 0.00 51 958.3
20260507082242 61 0.0 0.0 0.00 0.00 0.00 51 958.1
20260507081742 61 0.0 0.0 0.00 0.00 0.00 52 958.1
20260507081242 61 0.0 0.0 0.00 0.00 0.00 53 958.1
20260507080742 59 0.0 0.0 0.00 0.00 0.00 54 957.9
20260507080242 60 0.0 0.0 0.00 0.00 0.00 54 958.1
20260507075742 60 0.0 0.0 0.00 0.00 0.00 54 958.0
20260507075242 59 0.0 0.0 0.00 0.00 0.00 56 957.9
20260507074742 59 0.0 0.0 0.00 0.00 0.00 55 957.9
20260507074242 59 0.0 0.0 0.00 0.00 0.00 56 957.9
20260507073742 59 0.0 0.0 0.00 0.00 0.00 57 957.8
20260507073242 59 0.0 0.0 0.00 0.00 0.00 57 957.8
20260507072742 59 0.0 0.0 0.00 0.00 0.00 57 957.8
20260507072242 59 0.0 0.0 0.00 0.00 0.00 57 957.8
20260507071742 60 0.0 0.0 0.00 0.00 0.00 56 957.7
20260507071242 58 0.0 0.0 0.00 0.00 0.00 58 957.6
20260507070742 58 0.0 0.0 0.00 0.00 0.00 58 957.4
20260507070242 59 0.0 0.0 0.00 0.00 0.00 57 957.5
20260507065742 60 0.0 0.0 0.00 0.00 0.00 57 957.6
20260507065242 59 0.0 0.0 0.00 0.00 0.00 58 957.5
20260507064742 58 0.0 0.0 0.00 0.00 0.00 59 957.4
20260507064242 58 0.0 0.0 0.00 0.00 0.00 59 957.4
20260507063742 58 0.0 0.0 0.00 0.00 0.00 60 957.5
20260507063242 58 0.0 0.0 0.00 0.00 0.00 60 957.5
20260507062742 58 0.0 0.0 0.00 0.00 0.00 61 957.5
20260507062242 58 0.0 0.0 0.00 0.00 0.00 61 957.5
20260507061742 58 0.0 0.0 0.00 0.00 0.00 61 957.4
20260507061242 57 0.0 0.0 0.00 0.00 0.00 62 957.4
20260507060742 57 0.0 0.0 0.00 0.00 0.00 62 957.3
20260507060242 57 0.0 0.0 0.00 0.00 0.00 63 957.3
20260507055742 57 0.0 0.0 0.00 0.00 0.00 62 957.4
20260507055242 58 0.0 0.0 0.00 0.00 0.00 62 957.4
20260507054742 57 0.0 0.0 0.00 0.00 0.00 61 957.3
20260507054242 57 0.0 0.0 0.00 0.00 0.00 62 957.4
20260507053742 58 0.0 0.0 0.00 0.00 0.00 60 957.3
20260507053242 57 0.0 0.0 0.00 0.00 0.00 62 957.2
20260507052742 57 0.0 0.0 0.00 0.00 0.00 64 957.1
20260507052242 57 0.0 0.0 0.00 0.00 0.00 65 956.9
20260507051742 56 0.0 0.0 0.00 0.00 0.00 65 956.9
20260507051242 57 0.0 0.0 0.00 0.00 0.00 65 956.8
20260507050742 57 0.0 0.0 0.00 0.00 0.00 64 956.8
20260507050242 56 0.0 0.0 0.00 0.00 0.00 65 956.8
20260507045742 56 0.0 0.0 0.00 0.00 0.00 65 956.8
20260507045243 56 0.0 0.0 0.00 0.00 0.00 66 956.7
20260507044742 56 0.0 0.0 0.00 0.00 0.00 65 956.6
20260507044242 56 0.0 0.0 0.00 0.00 0.00 65 956.6
20260507043742 57 0.0 0.0 0.00 0.00 0.00 65 956.5
20260507043242 57 0.0 0.0 0.00 0.00 0.00 64 956.5
20260507042742 57 0.0 0.0 0.00 0.00 0.00 65 956.5
20260507042242 56 0.0 0.0 0.00 0.00 0.00 65 956.5
20260507041742 57 0.0 0.0 0.00 0.00 0.00 64 956.4
20260507041242 58 0.0 0.0 0.00 0.00 0.00 61 956.4
20260507040742 58 0.0 0.0 0.00 0.00 0.00 62 956.2
20260507040242 58 0.0 0.0 0.00 0.00 0.00 62 956.3
20260507035314 57 0.0 0.0 0.00 0.00 0.00 63 956.2
20260507034814 57 0.0 0.0 0.00 0.00 0.00 63 956.2
20260507034314 58 0.0 0.0 0.00 0.00 0.00 63 956.1
20260507033814 58 0.0 0.0 0.00 0.00 0.00 62 956.1
20260507033314 57 0.0 0.0 0.00 0.00 0.00 64 956.1
20260507032814 58 0.0 0.0 0.00 0.00 0.00 63 955.9
20260507032314 58 0.0 0.0 0.00 0.00 0.00 63 955.9
20260507031814 58 0.0 0.0 0.00 0.00 0.00 62 955.9
20260507031314 57 0.0 0.0 0.00 0.00 0.00 63 955.9
20260507030814 58 0.0 0.0 0.00 0.00 0.00 62 956.0
20260507030314 58 0.0 0.0 0.00 0.00 0.00 61 955.9
20260507025814 58 0.0 0.0 0.00 0.00 0.00 61 955.9
20260507025314 58 0.0 0.0 0.00 0.00 0.00 61 955.9
20260507024814 58 0.0 0.0 0.00 0.00 0.00 61 955.8
20260507024314 58 0.0 0.0 0.00 0.00 0.00 60 955.8
20260507023814 58 0.0 0.0 0.00 0.00 0.00 60 955.7
20260507023314 58 0.0 0.0 0.00 0.00 0.00 60 955.7
20260507022814 58 0.0 0.0 0.00 0.00 0.00 60 955.7
20260507022314 58 0.0 0.0 0.00 0.00 0.00 61 955.8
20260507021814 58 0.0 0.0 0.00 0.00 0.00 60 955.8
20260507021314 59 0.0 0.0 0.00 0.00 0.00 60 955.7
20260507020814 59 0.0 0.0 0.00 0.00 0.00 60 955.7
20260507020314 59 0.0 0.0 0.00 0.00 0.00 61 955.7
20260507015814 59 0.0 0.0 0.00 0.00 0.00 61 955.7
20260507015314 58 0.0 0.0 0.00 0.00 0.00 62 955.5
20260507014814 58 0.0 0.0 0.00 0.00 0.00 62 955.5
20260507014314 58 0.0 0.0 0.00 0.00 0.00 63 955.5
20260507013814 59 0.0 0.0 0.00 0.00 0.00 62 955.5
20260507013314 58 0.0 0.0 0.00 0.00 0.00 63 955.2
20260507012814 59 0.0 0.0 0.00 0.00 0.00 63 955.2
20260507012314 60 0.0 0.0 0.00 0.00 0.00 62 955.3
20260507011814 59 0.0 0.0 0.00 0.00 0.00 63 955.2
20260507011314 59 0.0 0.0 0.00 0.00 0.00 65 955.1
20260507010814 59 0.0 0.0 0.00 0.00 0.00 66 954.9
20260507010314 58 0.0 0.0 0.00 0.00 0.00 67 955.0
20260507005814 58 0.0 0.0 0.00 0.00 0.00 68 954.7
20260507005314 59 0.0 0.0 0.00 0.00 0.00 67 954.8
20260507004814 59 0.0 0.0 0.00 0.00 0.00 67 954.7
20260507004314 59 0.0 0.0 0.00 0.00 0.00 67 954.7
20260507003814 60 0.0 0.0 0.00 0.00 0.00 66 954.8
20260507003314 59 0.0 0.0 0.00 0.00 0.00 67 954.7
20260507002814 59 0.0 0.0 0.00 0.00 0.00 68 954.7
20260507002315 59 0.0 0.0 0.00 0.00 0.00 68 954.9
20260507001814 59 0.0 0.0 0.00 0.00 0.00 67 954.8
20260507001314 60 0.0 0.0 0.00 0.00 0.00 65 954.8
20260507000814 60 0.0 0.0 0.00 0.00 0.00 66 954.8
20260507000314 59 0.0 0.0 0.00 0.00 0.00 67 954.7
20260506235814 59 0.0 0.0 0.00 0.00 0.00 66 954.8
20260506235314 60 0.0 0.0 0.00 0.00 0.00 66 954.7
20260506234814 59 0.0 0.0 0.00 0.00 0.00 67 954.4
20260506234314 60 0.0 0.0 0.00 0.00 0.00 66 954.5
20260506233814 60 0.0 0.0 0.00 0.00 0.00 66 954.6
20260506233314 59 0.0 0.0 0.00 0.00 0.00 67 954.2
20260506232814 60 0.0 0.0 0.00 0.00 0.00 67 954.3
20260506232314 60 0.0 0.0 0.00 0.00 0.00 68 954.3
20260506231814 61 0.0 0.0 0.00 0.00 0.00 66 954.2
20260506231314 61 0.0 0.0 0.00 0.00 0.00 67 954.0
20260506230814 61 0.0 0.0 0.00 0.00 0.00 67 953.8
20260506230314 61 0.0 0.0 0.00 0.00 0.00 68 953.5
20260506225814 61 0.0 0.0 0.00 0.00 0.00 70 953.7
20260506225314 60 0.0 0.0 0.00 0.00 0.00 71 953.6
20260506224814 61 0.0 0.0 0.00 0.00 0.00 71 953.3
20260506224314 61 0.0 0.0 0.00 0.00 0.00 71 953.5
20260506223814 61 0.0 0.0 0.00 0.00 0.00 71 953.4
20260506223314 61 0.0 0.0 0.00 0.00 0.00 71 953.3
20260506222814 61 0.0 0.0 0.00 0.00 0.00 70 953.1
20260506222314 62 0.0 0.0 0.00 0.00 0.00 69 953.0
20260506221814 61 0.0 0.0 0.00 0.00 0.00 68 952.8
20260506221314 62 0.0 0.0 0.00 0.00 0.00 65 952.9
20260506220814 62 0.0 0.0 0.00 0.00 0.00 65 952.8
20260506220314 62 0.0 0.0 0.00 0.00 0.00 62 952.7
20260506215814 63 0.0 0.0 0.00 0.00 0.00 61 952.5
20260506215314 63 0.0 0.0 0.00 0.00 0.00 60 952.6
20260506214814 63 0.0 0.0 0.00 0.00 0.00 59 952.3
20260506214314 63 0.0 0.0 0.00 0.00 0.00 59 952.4
20260506213814 63 0.0 0.0 0.00 0.00 0.00 58 952.1
20260506213314 64 0.0 0.0 0.00 0.00 0.00 57 952.2
20260506212814 64 0.0 0.0 0.00 0.00 0.00 56 952.0
20260506212314 64 0.0 0.0 0.00 0.00 0.00 55 951.8
20260506211814 64 0.0 0.0 0.00 0.00 0.00 55 951.8
20260506211314 66 0.0 0.0 0.00 0.00 0.00 51 951.9
20260506210814 67 0.0 0.0 0.00 0.00 0.00 46 951.6
20260506210314 70 0.0 0.0 0.00 0.00 0.00 39 951.7
20260506205814 71 0.0 0.0 0.00 0.00 0.00 38 951.6
20260506205314 72 0.0 0.0 0.00 0.00 0.00 36 951.4
20260506204814 73 0.0 0.0 0.00 0.00 0.00 35 951.3
20260506204314 73 0.0 0.0 0.00 0.00 0.00 35 951.2
20260506203814 74 0.0 0.0 0.00 0.00 0.00 34 951.1
20260506203314 74 0.0 0.0 0.00 0.00 0.00 34 951.0
20260506202814 73 0.0 0.0 0.00 0.00 0.00 35 951.0
20260506202314 73 0.0 0.0 0.00 0.00 0.00 35 951.0
20260506201814 72 0.0 0.0 0.00 0.00 0.00 36 950.9
20260506201314 72 0.0 0.0 0.00 0.00 0.00 37 950.8
20260506200814 73 0.0 0.0 0.00 0.00 0.00 37 950.8
20260506200314 73 0.0 0.0 0.00 0.00 0.00 36 950.8
20260506195814 73 0.0 0.0 0.00 0.00 0.00 35 950.7
20260506195314 73 0.0 0.0 0.00 0.00 0.00 35 950.7
20260506194814 73 0.0 0.0 0.00 0.00 0.00 36 950.6
20260506194314 73 0.0 0.0 0.00 0.00 0.00 36 950.5
20260506193814 73 0.0 0.0 0.00 0.00 0.00 35 950.4
20260506193314 74 0.0 0.0 0.00 0.00 0.00 36 950.3
20260506192814 73 0.0 0.0 0.00 0.00 0.00 35 950.2
20260506192314 73 0.0 0.0 0.00 0.00 0.00 36 950.2
20260506191814 73 0.0 0.0 0.00 0.00 0.00 36 950.1
20260506191314 73 0.0 0.0 0.00 0.00 0.00 35 950.1
20260506190814 73 0.0 0.0 0.00 0.00 0.00 36 950.0
20260506190314 73 0.0 0.0 0.00 0.00 0.00 36 949.9
20260506185814 73 0.0 0.0 0.00 0.00 0.00 35 949.8
20260506185314 74 0.0 0.0 0.00 0.00 0.00 35 949.9
20260506184814 74 0.0 0.0 0.00 0.00 0.00 34 949.8
20260506184314 74 0.0 0.0 0.00 0.00 0.00 35 949.8
20260506183814 75 0.0 0.0 0.00 0.00 0.00 34 949.9
20260506183314 74 0.0 0.0 0.00 0.00 0.00 35 949.7
20260506182814 74 0.0 0.0 0.00 0.00 0.00 34 949.6
20260506182314 74 0.0 0.0 0.00 0.00 0.00 34 949.5
20260506181814 74 0.0 0.0 0.00 0.00 0.00 35 949.4
20260506181314 74 0.0 0.0 0.00 0.00 0.00 35 949.4
20260506180814 75 0.0 0.0 0.00 0.00 0.00 35 949.3
20260506180314 74 0.0 0.0 0.00 0.00 0.00 35 949.3
20260506175814 75 0.0 0.0 0.00 0.00 0.00 34 949.4
20260506175314 75 0.0 0.0 0.00 0.00 0.00 34 949.3
20260506174814 75 0.0 0.0 0.00 0.00 0.00 33 949.2